| time (UTC) | temp C | wind direction | speed KPH | gust KPH | rain 1hr cm | rain 24hr cm | rain mn cm | humidity % | barometer mb |
| 20260504223023 | 21 | 212 | 3.2 | 8.0 | 0.00 | 0.00 | 0.00 | 31 | 1006.9 |
| 20260504222019 | 21 | 199 | 8.0 | 17.7 | 0.00 | 0.00 | 0.00 | 31 | 1006.9 |
| 20260504221028 | 21 | 215 | 6.4 | 17.7 | 0.00 | 0.00 | 0.00 | 31 | 1006.9 |
| 20260504220028 | 21 | 201 | 3.2 | 9.7 | 0.00 | 0.00 | 0.00 | 31 | 1006.9 |
| 20260504215024 | 21 | 206 | 6.4 | 32.2 | 0.00 | 0.00 | 0.00 | 31 | 1007.0 |
| 20260504214022 | 21 | 199 | 6.4 | 9.7 | 0.00 | 0.00 | 0.00 | 30 | 1006.9 |
| 20260504213020 | 22 | 207 | 4.8 | 12.9 | 0.00 | 0.00 | 0.00 | 30 | 1006.9 |
| 20260504212029 | 23 | 216 | 4.8 | 6.4 | 0.00 | 0.00 | 0.00 | 29 | 1007.0 |
| 20260504211027 | 23 | 235 | 4.8 | 11.3 | 0.00 | 0.00 | 0.00 | 28 | 1007.0 |
| 20260504210025 | 23 | 263 | 3.2 | 4.8 | 0.00 | 0.00 | 0.00 | 29 | 1007.1 |
| 20260504205024 | 23 | 224 | 4.8 | 9.7 | 0.00 | 0.00 | 0.00 | 28 | 1007.0 |
| 20260504204023 | 22 | 210 | 4.8 | 11.3 | 0.00 | 0.00 | 0.00 | 28 | 1007.1 |
| 20260504203029 | 22 | 201 | 6.4 | 17.7 | 0.00 | 0.00 | 0.00 | 29 | 1006.9 |
| 20260504202028 | 22 | 233 | 4.8 | 8.0 | 0.00 | 0.00 | 0.00 | 29 | 1007.0 |
| 20260504201027 | 22 | 215 | 6.4 | 22.5 | 0.00 | 0.00 | 0.00 | 29 | 1006.9 |
| 20260504200023 | 21 | 197 | 6.4 | 17.7 | 0.00 | 0.00 | 0.00 | 29 | 1007.0 |
| 20260504195022 | 21 | 236 | 4.8 | 9.7 | 0.00 | 0.00 | 0.00 | 30 | 1007.0 |
| 20260504194020 | 21 | 230 | 3.2 | 12.9 | 0.00 | 0.00 | 0.00 | 30 | 1007.1 |
| 20260504193028 | 21 | 217 | 6.4 | 19.3 | 0.00 | 0.00 | 0.00 | 29 | 1007.1 |
| 20260504192026 | 21 | 199 | 8.0 | 20.9 | 0.00 | 0.00 | 0.00 | 29 | 1007.1 |
| 20260504191025 | 21 | 224 | 4.8 | 6.4 | 0.00 | 0.00 | 0.00 | 28 | 1007.2 |
| 20260504190024 | 21 | 230 | 4.8 | 4.8 | 0.00 | 0.00 | 0.00 | 28 | 1007.3 |
| 20260504185042 | 21 | 216 | 4.8 | 9.7 | 0.00 | 0.00 | 0.00 | 29 | 1007.4 |
| 20260504184029 | 22 | 204 | 9.7 | 17.7 | 0.00 | 0.00 | 0.00 | 26 | 1007.4 |
| 20260504183027 | 23 | 197 | 8.0 | 19.3 | 0.00 | 0.00 | 0.00 | 27 | 1007.5 |
| 20260504182026 | 22 | 200 | 8.0 | 16.1 | 0.00 | 0.00 | 0.00 | 27 | 1007.6 |
| 20260504181023 | 22 | 229 | 4.8 | 8.0 | 0.00 | 0.00 | 0.00 | 27 | 1007.7 |
| 20260504180021 | 22 | 220 | 6.4 | 16.1 | 0.00 | 0.00 | 0.00 | 28 | 1007.7 |
| 20260504175039 | 22 | 216 | 8.0 | 19.3 | 0.00 | 0.00 | 0.00 | 27 | 1007.8 |
| 20260504174028 | 22 | 184 | 6.4 | 14.5 | 0.00 | 0.00 | 0.00 | 28 | 1007.8 |
| 20260504173026 | 23 | 229 | 4.8 | 9.7 | 0.00 | 0.00 | 0.00 | 27 | 1007.9 |
| 20260504172024 | 22 | 223 | 8.0 | 12.9 | 0.00 | 0.00 | 0.00 | 28 | 1008.0 |
| 20260504171022 | 21 | 217 | 8.0 | 19.3 | 0.00 | 0.00 | 0.00 | 28 | 1008.1 |
| 20260504151020 | 20 | 227 | 4.8 | 12.9 | 0.00 | 0.00 | 0.00 | 32 | 1009.0 |
| 20260504141030 | 18 | 201 | 6.4 | 12.9 | 0.00 | 0.00 | 0.00 | 37 | 1009.8 |
| 20260504081042 | 4 | 0.0 | 0.0 | 0.00 | 0.08 | 0.00 | 79 | 1011.0 | |
| 20260504045027 | 1 | 0.0 | 0.0 | 0.00 | 0.08 | 0.00 | 85 | 1011.1 | |
| 20260504044023 | 1 | 0.0 | 0.0 | 0.00 | 0.08 | 0.00 | 85 | 1011.0 | |
| 20260504043021 | 1 | 0.0 | 0.0 | 0.00 | 0.08 | 0.00 | 84 | 1011.0 | |
| 20260504042039 | 1 | 0.0 | 0.0 | 0.00 | 0.08 | 0.00 | 83 | 1011.0 | |
| 20260504041029 | 1 | 0.0 | 0.0 | 0.00 | 0.08 | 0.00 | 82 | 1010.9 | |
| 20260504040027 | 1 | 0.0 | 0.0 | 0.00 | 0.08 | 0.00 | 81 | 1010.9 | |
| 20260504035024 | 1 | 0.0 | 0.0 | 0.00 | 0.08 | 0.08 | 79 | 1010.8 | |
| 20260504034042 | 2 | 0.0 | 0.0 | 0.00 | 0.08 | 0.08 | 79 | 1010.7 | |
| 20260504033022 | 2 | 0.0 | 0.0 | 0.00 | 0.08 | 0.08 | 80 | 1010.7 | |
| 20260504032029 | 2 | 0.0 | 0.0 | 0.00 | 0.08 | 0.08 | 79 | 1010.7 | |
| 20260504031027 | 2 | 0.0 | 0.0 | 0.00 | 0.08 | 0.08 | 78 | 1010.7 | |
| 20260504030026 | 2 | 0.0 | 0.0 | 0.00 | 0.08 | 0.08 | 78 | 1010.7 | |
| 20260504025022 | 2 | 0.0 | 0.0 | 0.00 | 0.08 | 0.08 | 77 | 1010.7 | |
| 20260504024040 | 3 | 0.0 | 0.0 | 0.00 | 0.08 | 0.08 | 76 | 1010.6 | |
| 20260504023030 | 3 | 0.0 | 0.0 | 0.00 | 0.08 | 0.08 | 76 | 1010.6 | |
| 20260504022028 | 3 | 0.0 | 0.0 | 0.00 | 0.08 | 0.08 | 74 | 1010.6 | |
| 20260504021025 | 3 | 0.0 | 0.0 | 0.00 | 0.08 | 0.08 | 72 | 1010.5 | |
| 20260504020044 | 3 | 0.0 | 0.0 | 0.00 | 0.08 | 0.08 | 71 | 1010.4 | |
| 20260504015022 | 4 | 0.0 | 0.0 | 0.00 | 0.08 | 0.08 | 69 | 1010.4 | |
| 20260504014021 | 4 | 0.0 | 0.0 | 0.00 | 0.08 | 0.08 | 68 | 1010.3 | |
| 20260504013028 | 5 | 0.0 | 0.0 | 0.00 | 0.08 | 0.08 | 66 | 1010.2 | |
| 20260504012047 | 5 | 0.0 | 0.0 | 0.00 | 0.08 | 0.08 | 63 | 1010.2 | |
| 20260504011026 | 5 | 0.0 | 0.0 | 0.00 | 0.08 | 0.08 | 62 | 1010.1 | |
| 20260504010022 | 6 | 0.0 | 0.0 | 0.00 | 0.08 | 0.08 | 58 | 1010.0 | |
| 20260504005020 | 6 | 0.0 | 0.0 | 0.00 | 0.08 | 0.08 | 57 | 1009.8 | |
| 20260504004029 | 7 | 0.0 | 0.0 | 0.00 | 0.08 | 0.08 | 53 | 1009.7 | |
| 20260504003027 | 7 | 0.0 | 0.0 | 0.00 | 0.08 | 0.08 | 52 | 1009.6 | |
| 20260504002026 | 7 | 0.0 | 0.0 | 0.00 | 0.08 | 0.08 | 50 | 1009.5 | |
| 20260504001103 | 7 | 0.0 | 0.0 | 0.00 | 0.08 | 0.08 | 50 | 1009.4 | |
| 20260504000041 | 8 | 0.0 | 0.0 | 0.00 | 0.08 | 0.08 | 49 | 1009.3 | |
| 20260503235020 | 8 | 0.0 | 0.0 | 0.00 | 0.10 | 0.08 | 49 | 1009.2 | |
| 20260503234027 | 8 | 232 | 0.0 | 6.4 | 0.00 | 0.13 | 0.08 | 48 | 1009.1 |
| 20260503233026 | 9 | 94 | 1.6 | 4.8 | 0.00 | 0.13 | 0.08 | 46 | 1009.0 |
| 20260503232025 | 9 | 258 | 1.6 | 3.2 | 0.00 | 0.13 | 0.08 | 46 | 1008.9 |
| 20260503231022 | 10 | 117 | 0.0 | 3.2 | 0.00 | 0.13 | 0.08 | 46 | 1008.8 |
| 20260503230020 | 10 | 342 | 1.6 | 8.0 | 0.00 | 0.13 | 0.08 | 44 | 1008.6 |
| 20260503225059 | 10 | 311 | 3.2 | 9.7 | 0.00 | 0.13 | 0.08 | 43 | 1008.6 |
| 20260503224027 | 10 | 297 | 3.2 | 6.4 | 0.00 | 0.13 | 0.08 | 42 | 1008.4 |